Вернуться в каталог

STARLINK-5572

АктивенСвязьVLEO
NORAD 55378·PAYLOAD·🇺🇸 United States

Запущен Jan 26, 2023 с Cape Canaveral Space Force Station

Loading…

Ближайшие Пролёты (ближайшие 24 часа)

TLE

СвежийSource: CelesTrak SupGP

Эпоха: Sep 15, 2026, 02:57 UTC

1 55378C 23013AZ  26258.12340278  .00024165  00000+0  87521-3 0  2588
2 55378  43.0008 331.3602 0001524 261.0484 282.3503 15.27568727    14

Отслеживайте STARLINK-5572 в реальном времени с AllMySat

Download on the App Store